SCP
0 0 0 0 0 0 0 0 0 0 0 0 0 0 0 0 0 0 0 1 1 1 1 1 1 0 0 0 0 0 0 0 0 0 0 0 0 0 0 0 0 0 0 0
0 0 0 0 0 0 0 0 0 0 0 0 0 0 0 0 0 0 0 1 1 1 1 1 1 1 1 1 0 0 0 0 0 0 0 0 0 0 0 0 0 0 0 0
0 0 0 0 0 0 0 0 0 0 0 0 0 0 0 0 0 0 0 1 1 1 1 1 1 1 1 1 1 1 0 0 0 0 0 0 0 0 0 0 0 0 0 0
0 0 0 0 0 0 0 0 0 0 0 0 0 0 0 0 0 0 0 1 1 1 1 1 1 1 1 1 1 1 1 0 0 1 1 0 1 1 1 0 0 0 0 0
0 0 0 0 0 0 0 0 0 0 0 0 0 0 0 0 0 0 0 1 1 1 1 1 1 1 1 1 1 1 1 0 0 1 1 1 1 1 1 1 1 1 1 0
0 0 0 0 0 0 0 0 0 0 0 0 0 0 0 0 0 0 1 1 1 1 1 1 1 1 1 1 1 1 0 0 1 1 1 1 1 1 1 1 1 1 1 1
0 0 0 0 0 0 0 0 0 0 0 0 0 0 0 0 0 0 1 1 1 1 1 1 1 1 1 1 1 1 0 1 1 1 1 1 1 1 1 1 1 1 1 1
0 0 0 0 0 0 0 0 0 0 0 0 0 0 0 0 1 1 1 1 1 1 1 1 1 1 1 1 1 1 1 1 1 1 1 1 1 1 1 1 1 1 1 1
0 0 0 0 0 0 0 0 0 0 0 0 0 0 0 0 1 1 1 1 1 1 1 1 1 1 1 1 1 1 1 1 1 1 1 1 1 1 1 1 1 1 1 1
0 0 0 0 0 0 0 0 0 0 0 0 0 0 0 0 1 1 1 1 1 1 1 1 1 1 1 1 1 1 1 1 1 1 1 1 1 1 1 1 1 1 1 1
0 0 0 0 0 0 0 0 0 0 0 0 0 0 0 0 0 1 1 1 1 1 1 1 1 1 1 1 1 1 1 1 1 1 1 1 1 1 0 0 0 0 0 0
0 0 0 0 0 0 0 0 0 0 0 0 0 0 0 0 0 1 1 1 1 1 1 1 1 1 1 1 1 1 1 1 1 0 0 0 1 0 0 0 0 0 0 0
0 0 0 0 0 0 0 0 0 0 0 0 0 0 0 0 1 1 1 1 1 1 1 1 1 1 1 1 1 1 1 1 1 1 0 0 0 0 0 0 0 0 0 0
0 0 0 0 0 0 0 0 0 0 0 0 0 0 0 0 1 1 1 1 1 1 1 1 1 1 1 1 1 1 1 1 1 1 0 0 0 1 0 0 0 0 0 0
0 0 0 0 0 0 0 0 0 0 0 0 0 0 0 0 1 1 1 1 0 0 0 1 1 0 0 0 0 0 0 0 0 0 0 0 0 1 0 0 0 0 0 0
0 0 0 0 0 0 0 0 0 0 0 0 0 0 0 0 1 1 1 1 0 0 0 0 0 0 0 0 0 0 0 0 0 0 0 1 1 1 0 0 0 0 0 0
0 0 0 0 0 0 0 0 0 0 0 0 0 0 0 0 0 1 1 0 0 0 0 0 0 0 0 0 0 0 0 0 0 0 0 1 1 1 1 0 0 0 0 0
0 0 0 0 0 0 0 0 0 0 0 0 0 0 0 0 0 0 0 0 0 0 0 0 0 0 0 0 0 0 0 0 0 0 0 0 1 1 1 0 0 0 0 0
0 0 0 0 0 0 0 0 0 0 0 0 0 0 0 0 0 0 0 0 0 0 0 0 0 0 0 0 0 0 0 0 0 0 0 0 0 0 0 0 0 0 0 0
0 0 0 0 0 0 0 0 0 0 0 0 0 0 0 0 0 0 0 0 0 0 0 0 0 0 0 0 0 0 0 0 0 0 0 0 0 0 0 0 0 0 0 0
0 0 0 0 0 0 0 0 0 0 0 0 0 0 0 0 0 0 0 0 0 0 0 0 0 0 0 0 0 0 0 0 0 0 0 0 0 0 0 0 0 0 0 0
0 0 0 0 0 0 0 0 0 0 0 0 0 0 0 0 0 0 0 0 0 0 0 0 0 0 0 0 0 0 0 0 0 0 0 0 0 0 0 0 0 0 0 0
0 0 0 0 0 0 0 0 0 0 0 0 0 0 0 0 0 0 0 0 0 0 0 0 0 0 0 0 0 0 0 0 0 0 0 0 0 0 0 0 0 0 0 0
0 0 0 0 0 0 0 0 0 0 0 0 0 0 0 0 0 -0 -0 0 0 0 0 0 0 0 0 0 0 0 0 0 0 0 0 0 0 0 0 0 0 0 0 0
0 0 0 0 0 0 0 0 0 0 0 0 0 0 0 0 0 0 0 0 0 0 0 0 0 0 0 0 0 0 0 0 0 0 0 0 0 0 0 0 0 0 0 0
0 0 0 0 0 0 0 0 0 0 0 0 0 0 0 0 0 0 0 0 0 0 0 0 0 0 0 0 0 0 0 0 0 0 0 0 0 0 0 0 0 0 0 0
0 0 0 0 0 0 0 0 0 0 0 0 0 0 0 0 0 0 0 0 0 0 0 0 0 0 0 0 0 0 0 0 0 0 0 0 0 0 0 0 0 0 0 0
Wind_Speed
9 8 8 10 11 12 15 15 14 11 11 7 5 4 4 5 6 6 7 7 6 6 6 6 6 7 7 6 7 7 7 7 7 6 6 6 5 5 5 6 6 5 5 5
11 11 11 13 13 14 14 14 15 14 10 4 3 3 5 6 7 7 7 6 6 6 6 6 6 6 7 7 6 6 7 6 6 6 6 5 5 5 5 5 5 5 5 4
11 10 12 16 14 14 13 12 13 13 8 4 4 4 5 6 7 7 7 7 7 6 5 6 6 7 7 7 6 6 6 6 6 6 5 5 5 5 5 6 6 5 5 5
10 10 16 9 6 10 12 11 11 9 6 5 5 4 4 4 5 6 6 6 6 5 5 5 6 7 7 7 7 6 6 5 5 5 5 5 5 5 5 5 5 5 5 5
11 14 14 9 6 8 11 11 8 8 7 5 4 4 5 4 4 5 5 5 5 5 5 4 5 7 7 7 6 6 6 5 5 5 5 4 4 4 4 4 4 4 4 4
12 14 14 6 3 4 8 11 5 6 6 6 6 8 5 6 6 5 5 4 4 4 5 5 5 6 7 7 6 6 5 5 5 5 5 5 4 4 3 3 3 3 3 4
14 14 10 3 1 5 10 3 1 3 4 5 7 4 0 3 4 5 5 5 5 5 4 5 5 6 6 6 6 5 4 4 5 5 5 5 4 3 3 3 3 3 3 4
12 14 9 1 3 5 3 4 2 3 2 4 3 1 2 3 4 5 5 5 5 5 4 4 5 6 5 4 4 4 4 4 5 5 4 4 4 3 3 3 4 4 3 3
8 5 2 1 3 3 4 4 4 3 2 3 3 2 3 3 3 4 5 5 5 5 4 4 4 4 5 4 4 4 4 4 4 4 4 3 4 4 4 4 4 3 3 3
8 6 4 4 4 5 5 6 5 4 4 4 4 3 3 3 3 4 5 5 5 5 5 4 4 4 4 4 4 4 4 4 4 4 4 3 3 3 3 3 3 3 3 3
10 7 6 6 6 6 6 6 5 4 4 4 4 4 3 4 4 3 4 4 5 5 5 5 4 4 4 4 4 4 4 3 4 4 4 4 3 1 2 2 1 2 2 2
8 6 7 6 5 6 6 6 5 5 4 4 4 4 4 4 4 4 4 5 5 5 5 5 5 4 4 5 4 4 4 4 4 3 4 4 4 3 2 1 2 1 1 2
8 8 9 9 8 7 7 7 6 6 5 4 4 4 4 3 4 4 4 5 5 5 4 5 5 4 4 5 5 4 3 3 3 3 3 4 4 3 3 3 2 2 2 1
7 8 9 8 8 7 7 6 6 6 6 5 4 4 3 3 4 4 5 5 5 4 4 4 4 4 4 4 5 4 3 3 3 3 3 3 3 3 3 3 3 2 3 4
9 10 10 8 7 7 6 5 5 5 5 5 5 5 5 4 4 4 5 5 5 5 5 4 4 4 3 4 4 4 3 2 2 2 3 3 3 3 3 3 2 2 2 3
10 10 9 8 8 7 7 6 6 6 6 6 5 5 5 4 4 4 5 5 6 5 4 4 4 3 3 3 4 3 3 3 3 3 3 3 3 3 3 3 3 3 3 2
10 9 9 9 8 7 7 6 6 6 6 6 6 5 5 5 5 4 5 5 5 4 4 4 4 3 3 3 4 3 3 3 5 4 3 2 3 3 3 3 3 3 2 2
11 11 10 9 8 7 7 6 6 6 5 5 6 6 6 6 6 5 5 5 5 4 4 3 3 3 4 3 3 3 3 3 3 3 3 3 2 3 3 3 3 3 2 3
8 8 8 7 7 6 5 5 5 4 4 5 6 6 6 5 5 5 4 5 6 5 4 3 3 4 4 3 3 3 4 4 3 3 3 3 4 3 3 3 3 3 3 2
6 6 6 6 5 5 4 4 4 4 4 5 6 6 6 6 5 5 6 6 4 3 3 3 4 4 4 4 4 4 4 4 4 3 3 4 4 3 3 3 3 3 3 3
5 5 4 4 3 3 4 4 3 4 4 4 5 5 5 5 6 5 5 5 4 3 4 5 5 4 4 3 5 4 4 4 4 4 4 3 3 3 3 3 3 3 2 2
5 4 3 2 2 3 3 3 3 4 4 4 4 5 5 6 6 5 5 3 3 3 4 4 4 3 2 4 5 4 4 4 4 3 3 3 3 3 3 3 3 2 2 2
4 3 3 3 3 3 3 4 4 4 4 4 4 4 5 4 3 4 4 3 3 4 4 3 2 4 4 5 5 4 4 4 4 3 3 3 4 4 3 4 3 2 2 2
3 3 3 3 2 3 3 3 4 3 4 4 3 4 4 4 3 3 3 4 4 5 4 3 5 6 7 5 4 4 4 4 4 4 4 4 4 3 3 3 3 3 2 3
3 3 2 2 2 2 2 3 3 4 4 3 4 4 4 3 2 2 2 3 4 5 4 5 7 7 6 5 4 4 4 4 3 4 4 4 4 3 3 3 3 3 3 3
3 2 1 2 1 1 2 2 2 2 3 3 3 3 3 2 3 2 2 3 4 4 3 3 5 6 5 5 4 4 4 4 4 4 4 4 4 3 3 3 3 3 3 3
2 2 1 1 0 1 1 2 2 2 2 2 2 2 2 2 2 2 2 2 2 3 3 3 4 4 4 4 3 3 3 3 3 3 3 3 3 3 3 3 3 3 3 3
Wind_Direction
260 264 255 242 234 231 238 251 260 261 260 255 231 207 191 181 174 172 172 171 168 169 163 166 167 170 175 180 179 178 182 190 191 192 194 199 200 208 205 209 212 212 217 219
246 245 250 250 243 238 239 246 254 261 264 266 234 202 190 189 184 182 182 180 173 170 168 171 171 173 173 176 177 179 186 193 190 193 196 199 203 206 205 207 210 211 215 214
249 242 249 242 237 239 240 242 251 254 258 233 223 208 203 199 194 192 188 183 177 176 175 173 174 173 173 171 171 176 184 192 192 195 199 203 208 204 206 208 207 208 211 207
250 244 246 249 242 244 247 245 246 257 258 239 237 221 209 202 201 198 192 187 181 178 177 175 172 170 169 166 170 174 181 190 191 196 199 200 203 206 209 211 208 206 205 205
246 241 243 237 232 240 244 246 248 249 243 230 213 207 199 198 202 200 194 186 182 184 175 166 166 164 166 169 172 179 183 192 193 194 195 196 197 199 204 208 206 204 203 207
239 247 247 236 207 244 251 240 235 245 235 217 201 226 196 185 200 196 188 180 175 175 168 159 158 163 171 173 177 185 189 195 195 195 198 201 195 197 199 204 206 212 211 217
240 244 246 272 215 213 234 250 281 249 240 223 217 256 112 171 185 180 175 169 165 166 164 155 159 165 178 181 184 183 186 190 189 188 194 191 188 193 194 202 204 215 218 219
236 243 239 109 209 240 315 355 333 292 264 240 233 218 165 167 169 168 168 165 164 159 149 147 161 170 180 184 175 172 180 184 181 182 193 177 180 187 193 201 202 208 214 224
248 258 352 261 258 302 311 307 304 296 286 248 227 214 190 182 176 171 170 162 163 158 150 150 163 175 181 172 169 175 183 186 181 181 184 182 184 187 195 204 217 212 214 222
255 244 255 264 279 286 295 291 292 289 275 250 243 233 209 190 184 180 172 168 167 165 163 159 166 177 175 161 168 176 186 184 176 178 181 177 191 195 201 206 218 222 228 232
248 256 262 253 274 288 293 290 287 279 259 244 239 230 208 192 188 188 183 180 180 177 172 168 170 174 171 160 166 174 182 186 192 190 182 182 187 195 214 195 239 256 259 256
258 258 262 270 280 280 275 276 274 266 252 243 235 223 207 196 191 194 193 187 188 185 179 172 173 175 174 167 171 179 185 192 200 195 182 186 179 168 88 115 124 164 319 291
279 288 283 284 285 279 270 268 266 258 247 236 234 222 208 201 197 198 198 192 191 191 185 176 172 170 171 178 181 190 202 204 215 205 192 194 192 191 179 161 156 163 178 181
281 279 271 273 280 279 272 263 256 248 242 235 228 220 210 206 205 204 203 196 192 191 189 182 180 176 177 183 185 192 206 193 214 217 212 204 205 203 199 195 185 182 167 167
271 270 270 275 274 270 265 255 244 238 234 229 220 217 212 210 211 210 206 198 190 194 194 189 187 181 181 192 188 196 210 201 213 227 215 204 203 203 199 197 192 185 172 158
274 269 267 264 263 261 256 250 244 240 232 225 218 213 214 215 212 206 204 201 198 201 195 196 192 186 187 193 189 194 199 181 216 229 216 206 202 203 202 197 198 196 196 179
273 268 264 261 260 257 257 255 247 242 234 224 218 213 211 211 206 204 208 200 200 202 194 191 186 185 192 200 209 212 202 180 194 220 217 214 210 210 211 210 208 208 197 150
264 264 262 261 258 254 253 252 247 240 233 225 215 211 209 207 209 208 206 195 193 190 185 181 174 185 191 201 216 221 204 202 210 211 202 207 215 215 213 209 207 213 206 170
269 262 258 255 252 247 242 242 245 240 232 218 211 211 209 207 206 203 194 192 195 193 190 179 170 194 197 193 218 216 209 206 208 205 205 193 208 214 211 211 210 212 217 210
278 264 258 251 243 243 238 235 238 232 225 213 210 209 209 210 208 198 192 199 204 204 180 173 193 205 211 197 221 219 210 209 210 207 205 213 210 208 209 215 216 215 219 221
284 266 255 246 240 239 238 240 237 228 219 213 212 211 210 209 204 196 201 206 190 190 192 182 205 207 207 202 219 221 212 210 210 207 207 211 211 212 213 215 219 216 221 225
290 274 263 244 230 233 237 238 229 224 216 214 214 208 205 205 199 197 202 216 184 164 199 201 206 183 192 211 220 216 211 208 210 212 214 210 210 215 217 219 221 222 228 232
302 287 267 249 238 237 240 236 222 215 214 212 207 205 207 204 205 205 202 190 189 183 213 206 168 157 190 219 219 211 208 205 208 213 219 217 215 218 218 219 224 224 228 234
307 300 282 264 242 228 227 225 212 201 202 202 198 201 204 198 199 205 205 167 176 189 213 164 153 177 205 218 212 209 207 206 208 209 214 220 218 215 221 225 227 228 230 234
305 293 277 257 231 217 211 211 202 192 195 190 186 185 201 204 213 207 204 185 167 187 206 166 171 196 210 211 211 213 212 211 214 216 215 215 217 214 218 225 226 228 233 237
324 309 296 267 270 256 227 215 205 194 194 185 182 179 183 179 187 195 194 189 181 191 213 187 182 198 210 206 208 211 212 197 197 210 215 217 216 216 220 223 229 240 245 251
341 350 343 295 250 253 243 210 197 195 190 187 184 179 184 181 184 193 195 196 192 194 195 192 194 196 196 197 198 200 205 209 209 208 205 210 215 218 220 225 232 236 243 242